www.pogodaiklimat.ru

Погода и климат >> Архив погоды >> Китай >> Shisan Jianfang


ПОГОДА в Shisan Jianfang

  • Прогноз погоды в Shisan Jianfang
  • Монитор погоды в Shisan Jianfang
  • Климат города

АРХИВ ПОГОДЫ в Shisan Jianfang

Время (UTC), дата Ветер
(напр.,м/с)
 
Видим.   Явления Облачность Т
(С)
Тd
(С)
f
(%)
Тe
(С)
Тes
(С)
Комфортность P
(гПа)
Po
(гПа)
Тmin
(С)
Tmax
(С)
R
(мм)
R24
(мм)
S
(см)
03 14.10 Ю 2 30 км ясно +14.1 -9.9 18 +14 +18 1021.2 1021.0
06 14.10 Ю 3 30 км ясно +18.2 -8.0 16 +18 +25 1019.8 1020.0 +7.4
09 14.10 Ю 3 25 км 1/1
[]
+20.2 -8.1 14 +20 +22 1017.7 1018.0
12 14.10 ЮЗ 1 18 км 1/1
[]
+17.0 -8.2 17 +18 +18 1018.8 1019.0
18 14.10 СВ 5 30 км ?/? +9.6 -9.5 25 +7 +7 1019.3 1019.0 +20.2
21 14.10 С 4 30 км ?/? +9.5 -9.5 25 +7 +7 1019.1 1019.0
00 15.10 СВ 6 30 км ясно +9.4 -9.1 26 +7 +7 1020.9 1020.7
03 15.10 С 4 30 км 9/9
[]
+15.8 -9.2 17 +15 +15 1022.2 1022.0
06 15.10 З 2 30 км 8/8
[]
+19.8 -8.5 14 +20 +21 1020.7 1021.0 +8.6
09 15.10 Ю 1 29 км 3/3 1500 м
[]
+21.5 -9.1 12 +20 +22 1019.1 1019.0
12 15.10 Ю 1 28 км 3/3 1500 м
[]
+18.4 -9.6 14 +19 +19 1019.7 1020.0
18 15.10 С 5 30 км ?/? +11.5 -11.3 19 +10 +10 1019.9 936.8 +22.0
21 15.10 С 3 30 км ?/? +10.9 -11.2 20 +10 +10 1019.2 1019.0
00 16.10 С 6 30 км ясно +9.5 -10.1 24 +7 +7 1020.2 1034.1
03 16.10 Ю 2 30 км ясно +16.2 -9.6 16 +17 +20 1021.1 1021.0
06 16.10 Ю 2 24 км ясно +19.9 -9.3 13 +20 +28 1019.1 1019.0 +7.3
09 16.10 Ю 3 30 км ясно +21.8 -11.2 10 +20 +22 1016.8 1017.0
12 16.10 ЮВ 2 19 км ясно +17.8 -12.0 12 +18 +18 1017.8 1018.0
18 16.10 С 5 30 км ?/? +12.2 -12.1 17 +11 +11 1017.1 934.4 +22.1
21 16.10 С 5 30 км ?/? +10.8 -11.9 19 +9 +9 1016.9 1017.0
00 17.10 С 6 30 км 3/3
[]
+10.3 -11.7 20 +8 +8 1018.5 1032.6
03 17.10 З 1 20 км 3/3
[]
+15.5 -11.0 15 +16 +19 1020.3 1020.0
06 17.10 Ю 4 30 км 4/4
[]
+21.1 -10.5 11 +20 +23 1018.3 1018.0 +9.3
09 17.10 Ю 3 30 км 5/5
[]
+22.2 -9.6 11 +20 +21 1016.5 1017.0
12 17.10 Ю 1 8000 м 5/5
[]
+17.6 -11.1 13 +19 +19 1017.7 1018.0
18 17.10 С 5 30 км ?/? +10.7 -10.7 21 +9 +9 1016.4 1016.0 +22.9
21 17.10 С 5 30 км ?/? +9.5 -10.6 23 +7 +7 1015.7 1016.0
00 18.10 С 5 30 км ясно +8.9 -11.7 22 +6 +6 1016.9 1017.0
03 18.10 Ю 3 24 км ясно +16.8 -10.0 15 +17 +19 1017.7 1018.0
06 18.10 Ю 5 30 км ясно +21.5 -9.1 12 +20 +24 1015.9 1016.0 +8.5
09 18.10 Ю 6 24 км 8/8
[]
+22.7 -2.1 19 +21 +22 комфорт 1013.2 1013.0
12 18.10 Ю 3 19 км 3/3
[]
+19.3 -2.9 22 +19 +19 1012.8 1013.0
18 18.10 С 5 30 км ?/? +13.1 -8.1 22 +12 +12 1011.0 1011.0 +23.1
21 18.10 С 6 30 км ?/? +13.7 -7.6 22 +12 +12 1010.9 1011.0
00 19.10 С 9 24 км ясно +12.7 -4.9 29 +10 +10 1013.1 1013.0
03 19.10 С 19
{23}
16 км ясно +17.3 -6.5 19 +15 +15 1014.1 1014.0
06 19.10 С 16
{23}
14 км ясно +19.7 -0.9 25 +18 +18 1013.5 1013.7 +11.3
09 19.10 С 17
{24}
13 км ясно +19.0 -1.5 25 +17 +17 1013.9 1014.0
12 19.10 С 19
{27}
8000 м 9/9
[]
+14.4 +0.3 38 +11 +11 1017.4 1017.0
18 19.10 С 18
{28}
30 км ?/? +11.3 +1.5 51 +7 +7 1019.7 1020.0 +20.3
21 19.10 С 17
{28}
30 км ?/? +11.3 +1.5 51 +7 +7 1021.0 1021.0
00 20.10 С 15
{28}
30 км 9/9
[]
+11.7 +0.8 47 +8 +8 1023.2 1023.0
03 20.10 С 14
{22}
30 км 6/6
[]
+14.2 -4.0 28 +11 +11 1025.0 1025.0
06 20.10 С 9
{21}
30 км 1/1 1500 м
[]
+19.1 -9.0 14 +18 +19 1024.4 1024.5 +11.0
09 20.10 С 9
{18}
12 км ясно +19.8 -9.4 13 +19 +19 1023.5 1024.0
12 20.10 С 6 9000 м ясно +15.7 -8.5 18 +15 +15 1026.1 1026.0
18 20.10 С 5 30 км ?/? +11.7 -8.2 24 +10 +10 1025.7 942.1 +20.4
21 20.10 С 8 30 км ?/? +9.8 -8.3 27 +6 +6 1024.6 1025.0

 

Местоположение метеостанции Shisan Jianfang (Китай): широта 43.22 долгота 91.73 высота над уровнем моря 792 м.

В архиве по умолчанию представлена погода в Shisan Jianfang за последнюю неделю. Архивные данные за месяц целиком и за предыдущие месяцы, начиная с января 2011 года, Вы можете получить, выбрав интересующий диапазон дат из раскрывающегося списка и нажав кнопку "Ввод!".

Внимание! Время в таблицах - всемирное. Для получения местного времени необходимо прибавить поправку, которая в Shisan Jianfang равна 8 ч.

Смотрите также архив погоды в соседних городах и на ближайших метеорологических станциях:

Погода в Hami (Китай) (152 км)
Погода в Qitai (Китай) (195 км)
Погода в Turpan (Китай) (208 км)
Погода в Beita Shan (Китай) (258 км)
Погода в Naomaohu (Китай) (278 км)
Погода в Baitag (Монголия) (323 км)
Погода в Urumqi (Китай) (335 км)
Погода в Tonhil (Монголия) (385 км)
Погода в Jargalant (Монголия) (415 км)
Погода в Dunhuang (Китай) (420 км)

Пояснения к столбцам:

Ветер - указаны скорость ветра в м/с - средняя за 10 мин, порывы в срок и между сроками (в фигурных скобках) и направление, откуда дует ветер: С - северный, СВ - северо-восточный, В - восточный, ЮВ - юго-восточный, Ю - южный, ЮЗ - юго-западный, З - западный, СЗ - северо-западный.
Видимость - горизонтальная дальность видимости в метрах или километрах. При видимости от 1 до 10 км при отсутствии осадков обычно наблюдается дымка, при ухудшении видимости до 1 км и менее - туман. В сухую погоду видимость может ухудшаться дымом, пылью или мглою.
Явления - указаны атмосферные явления, наблюдавшиеся в срок или в последний час перед сроком; фигурными скобками обозначены явления, наблюдавшиеся между сроками (за 1-3 часа до срока); квадратными скобками обозначены град или гололедные отложения с указанием их диаметра в мм.
Облачность - указаны через наклонную черту общая и нижняя облачность в баллах и высота нижней границы облаков в метрах; квадратными скобками обозначены формы облаков: Ci - перистые, Cs - перисто-слоистые, Cc - перисто-кучевые, Ac - высококучевые, As - высокослоистые, Sc - слоисто-кучевые, Ns - слоисто-дождевые, Cu - кучевые, Cb - кучево-дождевые. Подробнее классификацию облаков см. в Атласе облаков (PDF).
T - Температура воздуха - температура, измеренная на высоте 2 м над землей.
Td - Температура точки росы - температура, при понижении до которой содержащийся в воздухе водяной пар достигнет насыщения.
f - Относительная влажность воздуха - влажноcть воздуха, измеренная на высоте 2 м над землей.
Te - Эффективная температура - температура, которую ощущает одетый по сезону человек в тени. Характеристика душности погоды. При расчете учитывается влияние влажности воздуха и скорости ветра на теплоощущения человека.
Tes - Эффективная температура на солнце - температура, которую ощущает человек, с поправкой на солнечный нагрев. Характеристика знойности погоды. Зависит от высоты солнца над горизонтом, облачности и скорости ветра. Ночью, в пасмурную погоду, а также при ветре 12 м/с и более поправка равна нулю.
P - Атмосферное давление - приведенное к уровню моря атмосферное давление.
Po - Атмосферное давление - измеренное на уровне метеостанции атмосферное давление.
Tmin - Минимальная температура - минимум температуры воздуха на высоте 2 м над землей.
Tmax - Максимальная температура - максимум температуры воздуха на высоте 2 м над землей.
R - Количество осадков - Количество выпавших осадков за период времени, мм. При наведении курсора мыши на число - период времени, за который выпало указанное количество осадков.
R24 - Количество осадков - Количество выпавших осадков за 24 часа, мм.
S - Снежный покров - Высота снежного покрова, см. При наведении курсора мыши на число - состояние снежного покрова и степень покрытия местности в баллах.